sat.trackr.live / text

‹ back to catalog

STARLINK-11374 [DTC]

NORAD 61581 · 2024-187H

PAYLOAD ACTIVE UNKNOWN

§ Identity

Operator
Country
US
Launch date
2024-10-18
Launch site
AFETR
Launch vehicle
Mass (kg)
RCS (m²)

Purposes: comms

External: N2YO · Heavens-Above · Gunter

§ Orbital elements

Epoch: 2026-09-21T15:40:07.940352Z

Period
91.74 min
Inclination
53.1586°
Eccentricity
0.0000792
Mean motion
15.69706558 rev/d
Perigee alt
359.2 km
Apogee alt
360.3 km
Semi-major
6,737.9 km
B*
7.4597e-6
RAAN
50.5847°
Arg perigee
111.0224°
Mean anomaly
249.0878°
Rev number
11,157

§ Raw data

STARLINK-11374 [DTC]1 61581U 24187H   26264.65286968  .00000316  00000+0  74597-5 0  99992 61581  53.1586  50.5847 0000792 111.0224 249.0878 15.69706558111574

JSON: /api/v1/satellites/61581 · /tle

For live sub-satellite position, see the globe view (requires WebGL).

§ Visibility from observer

Set your observer location to see the next 7 days of passes ≥ 10°. The values pass through the URL so the page stays shareable.

No JS? Fill the form by hand. The geolocation button needs JavaScript.